{"data":{"norad_id":67150,"epoch":"2026-09-19T03:31:31.131840Z","epoch_age_seconds":223006,"freshness":"STALE","line1":"1 67150U 25301T   26262.14688810  .00001829  00000+0  26886-3 0  9996","line2":"2 67150  51.9051 307.7109 0000433  89.0825 271.0187 14.79935348 42130","mean_motion":14.79935348,"eccentricity":4.33e-5,"inclination_deg":51.9051,"raan_deg":307.7109,"arg_perigee_deg":89.0825,"mean_anomaly_deg":271.0187,"bstar":0.00026886,"rev_number":4213,"period_min":97.301547797073,"perigee_km":629.22478522673,"apogee_km":629.83164903453,"semimajor_km":7007.6652171306,"source":"CELESTRAK","updated_at":"2026-09-21T09:00:16.459130Z"}}